Погода в Семибалках

Россия / Ростовская область     47°00′18″N   39°02′38″E
темп.,
°C
ветер,
м/с
пор.,
м/с
влажн.,
%
обл.,
%
осадки,
мм/ч
давл.,
гПа
погр.,
м
12 мая, ср
ср1200:00+8ююв689524 0.8 1014228
03:00+8ююв8119694 0.9 1015405
06:00+9юв91387100 0.1 1016803
09:00+10юв8128358 0.3 1016802
12:00+13ююв687035 0.1 10161108
15:00+13ююв5875100 0.8 1016735
18:00+13вюв3478100 0.2 1015214
21:00+13вюв3581100 0.4 1014163
13 мая, чт
чт1300:00+12юв3486100 0.0 1014103
03:00+12вюв33875 0.0 101389
06:00+12вюв34865 0.0 1013129
09:00+17вюв34716 0.0 1014398
12:00+20всв33639 0.0 1013517
15:00+22в3459100 0.0 1013564
18:00+21вюв3572100 0.0 101395
21:00+18вюв4682100 0.0 101371
14 мая, пт
пт1400:00+16в510900 0.0 1012150
03:00+15в510895 0.0 1011174
06:00+15вюв511840 0.0 1011246
09:00+20вюв587086 0.0 1011222
12:00+24вюв46628 0.0 1011372
15:00+26юв34575 0.0 1010484
18:00+25вюв46685 0.0 1010115
21:00+20вюв44865 0.0 101037
15 мая, сб
сб1500:00+19вюв33890 0.0 101016
03:00+18юз33916 0.0 101030
06:00+17ссв35930 0.6 101175
09:00+19зсз438596 0.6 1012193
12:00+20з4365100 0.0 1013282
15:00+21з446455 0.0 1013317
18:00+20з347519 0.0 101292
21:00+18з457845 0.0 101252
16 мая, вс
вс1600:00+17сз11762 0.0 101111
03:00+17с33823 0.0 101117
06:00+18всв46835 0.0 101083
09:00+21всв46785 0.0 1009242
12:00+23всв57655 0.0 1008417
15:00+25в710546 0.0 1007532
18:00+23всв6106597 0.0 1005218
21:00+20в511705 0.0 1004123